Tracking 28779 objects as of 15-Apr-2024
HD Live streaming from Space Station
objects crossing your sky now

FENGYUN 1C DEB

Track FENGYUN 1C DEB now!
10-day predictions


NORAD ID: 31622
Int'l Code: 1999-025CAC
Perigee: 800.8 km
Apogee: 825.0 km
Inclination: 98.8 °
Period: 101.0 minutes
Semi major axis: 7183 km
RCS: 0.0179 m2 (small)
Launch date: May 10, 1999
Source: People's Republic of China (PRC)
Launch site: Taiyaun Space Center, China (TSC)

Note: This is SATELLITE DEBRIS
Your satellite tracking list
Your tracking list is empty




NASA's NSSDC Master Catalog

Two Line Element Set (TLE):
1 31622U 99025CAC 24106.47469853  .00006824  00000-0  28827-2 0  9997
2 31622  98.8292 185.1389 0016833 316.1583 166.6396 14.25810286870950
Source of the keplerian elements: AFSPC